Location: Wingham
(43.8875°N, 81.3111°W)
Time: 15:37:53
(UTC+00:00)

Daily predictions for brighter satellites

Satellite Brightness Start Highest point End
(mag) Time Altitude Azimuth Time Altitude Azimuth Time Altitude Azimuth
Cosmos 1743 2.3 12:02:39 10° S 12:05:53 84° E 12:09:08 10° N
USA 267 4.3 12:00:18 10° ENE 12:06:39 51° SE 12:12:57 10° SSW
Cosmos 2219 Rocket 2.7 12:03:43 10° NNW 12:09:20 61° ENE 12:14:53 10° SE
SL-08 R/B 4.4 12:05:28 10° SE 12:09:49 45° ENE 12:14:14 10° N
IRIDIUM 103 4.4 12:04:57 10° SSW 12:10:03 56° W 12:15:12 10° N
IRS-1C 4.3 12:05:12 10° NNE 12:10:34 81° ESE 12:15:53 10° SSW
Cosmos 2322 Rocket 2.3 12:05:42 10° NNW 12:11:23 71° WSW 12:17:00 10° SSE
CBERS-1 4.3 12:06:36 10° N 12:11:26 44° WNW 12:16:13 10° SW
Cosmos 1814 Rocket 4.0 12:06:26 10° SSW 12:11:36 65° WNW 12:16:52 10° NNE
Cosmos 1812 Rocket 3.8 12:07:32 10° N 12:11:52 72° E 12:16:10 10° SSE
AQUARIUS 4.3 12:09:06 10° NNE 12:13:32 81° ESE 12:17:56 10° S
Cosmos 2058 Rocket 4.0 12:10:21 10° NNW 12:14:08 28° W 12:17:51 10° SSW
Cosmos 2266 Rocket 4.2 12:11:51 10° S 12:18:15 84° E 12:24:38 10° N
Meteor 1-27 4.3 22:12:35 10° S 22:18:24 84° E 22:24:13 10° NNE
BREEZE-M DEB (TANK) 4.1 22:16:00 10° WNW 22:18:28 30° N 22:24:22 10° ENE
Cosmos 1455 Rocket 3.8 22:14:56 10° SSW 22:19:10 55° WNW 22:23:27 10° N
NOSS 3-2 (C) 4.0 22:15:20 10° S 22:19:27 28° ESE 22:24:07 10° NE
NOSS 3-2 (A) 3.1 22:15:45 10° SSW 22:20:37 77° ESE 22:26:25 10° NE
Cosmos 1782 3.1 22:19:38 10° SSE 22:22:59 38° E 22:26:21 10° NNE
BREEZE M DEB (TANK) 2.6 22:21:54 10° SW 22:25:01 41° SSE 22:26:59 10° ENE
MOS 1 Rocket 4.2 22:23:05 10° SE 22:27:13 29° ENE 22:31:33 10° N
Cosmos 405 Rocket 2.3 22:24:05 10° N 22:27:18 53° ENE 22:30:27 10° SSE
Cosmos 2279 Rocket 4.0 22:27:17 10° S 22:33:25 70° E 22:39:37 10° NNE
YAOGAN 1 4.2 22:32:22 10° E 22:34:26 13° ENE 22:36:30 10° NNE
Cosmos 1356 Rocket 4.1 22:31:21 10° SSW 22:35:18 56° WNW 22:39:20 10° N
Cosmos 1092 Rocket 4.5 22:31:48 10° NNW 22:37:53 65° W 22:43:56 10° S
SJ-12 4.1 22:36:25 10° SE 22:39:56 39° ENE 22:43:30 10° N
Cosmos 1570 Rocket 4.0 22:34:42 10° NNW 22:40:04 77° ENE 22:45:22 10° SSE
Cosmos 1933 4.4 22:39:10 10° SE 22:42:09 22° E 22:44:57 11° NE
Cosmos 1980 Rocket 4.0 22:40:42 10° ESE 22:42:13 11° E 22:43:08 11° E
IRS-P3 4.5 22:38:27 10° SE 22:43:24 41° ENE 22:48:22 10° N
Cosmos 2180 Rocket 4.5 22:40:50 10° S 22:46:50 62° E 22:52:53 10° NNE
Cosmos 836 Rocket 4.4 22:42:29 10° NNW 22:47:45 80° ENE 22:53:00 10° SSE
Cosmos 1486 Rocket 4.0 22:44:41 10° S 22:49:49 67° ESE 22:55:01 10° NNE
Cosmos 2228 4.0 22:46:43 10° SSW 22:50:48 48° WNW 22:54:57 10° N
CZ-4C R/B 3.3 22:44:17 10° NNW 22:50:51 45° NE 22:58:55 10° ESE
IRIDIUM 106 4.3 22:51:31 10° N 22:56:42 59° E 23:01:49 10° SSE
Cosmos 1825 Rocket 4.3 22:53:24 10° NNE 22:57:12 28° ENE 23:00:56 10° SE
Cosmos 2263 Rocket 3.5 22:53:33 10° N 22:57:27 19° NE 22:58:58 17° ENE
Cosmos 1758 Rocket 3.5 22:54:18 10° N 22:58:37 84° W 23:02:54 10° S
Cosmos 2098 Rocket 2.8 22:55:11 10° S 22:58:57 90° E 23:03:29 10° N
USA 290 2.6 22:56:24 10° N 22:59:32 41° ENE 23:02:37 10° SE
Cosmos 2360 4.2 22:55:12 10° SSW 23:00:54 81° ESE 23:06:40 10° NNE
CORIOLIS 4.4 22:56:12 10° S 23:01:31 74° WSW 23:06:52 10° NNW
Cosmos 773 Rocket 4.0 22:59:35 10° NNW 23:04:50 89° ENE 23:10:04 10° SSE
CZ-2D R/B 2.6 23:01:45 10° SSE 23:04:52 86° E 23:08:02 10° NNW
Cosmos 2227 Rocket 2.8 23:02:17 10° N 23:07:22 33° NE 23:12:26 10° ESE
ARIANE 5 R/B 2.5 23:02:44 10° SSE 23:07:46 86° WSW 23:12:54 10° NNW
NOSS 2-2 (D) 4.2 23:07:53 10° WSW 23:11:00 33° NW 23:13:08 15° NNE
AQUARIUS 4.0 23:06:45 10° SSE 23:11:09 79° ENE 23:15:34 10° N
SPOT 1/Viking Rocket 3.7 23:06:40 10° SE 23:11:39 49° ENE 23:16:39 10° N
Cosmos 2266 Rocket 3.9 23:05:52 10° N 23:12:02 72° E 23:18:05 10° SSE
Cosmos 1607 3.9 23:06:38 10° NNW 23:12:50 65° NE 23:19:05 10° SE
Cosmos 2208 Rocket 4.2 23:09:06 10° NNW 23:14:16 76° WSW 23:19:26 10° SSE
SL-16 R/B 3.9 23:09:21 10° N 23:14:59 37° WNW 23:20:36 10° SW
CENTAUR R/B 4.0 23:10:35 10° W 23:15:44 29° NNW 23:21:56 10° NNE
Cosmos 990 Rocket 4.3 23:12:20 10° S 23:17:09 44° ESE 23:20:05 22° NE
ATLAS CENTAUR R/B 0.5 23:15:14 10° NW 23:18:28 88° ENE 23:21:23 12° SE
USA 238 DEB 4.4 23:14:04 10° SSE 23:19:00 27° ESE 23:20:47 24° E
USA 238 4.4 23:14:12 10° SSE 23:19:07 27° ESE 23:20:51 23° E
Cosmos 1743 2.9 23:16:23 10° NNW 23:19:35 57° W 23:22:45 10° S
NOSS 2-2 (E) 4.2 23:17:48 10° WSW 23:20:55 33° NW 23:22:39 18° N
BlueWalker 3 1.8 23:18:10 10° WNW 23:21:49 80° SW 23:24:06 21° SE
Cosmos 1697 Rocket 2.7 23:18:04 10° S 23:23:33 58° ESE 23:27:11 21° NE
SAR-Lupe-3 3.8 23:26:07 46° N 23:26:41 68° WNW 23:29:11 10° SSW
SMAP 4.4 23:22:23 10° S 23:26:46 41° W 23:31:12 10° NNW
Cosmos 2151 3.2 23:23:51 10° NNW 23:27:58 67° W 23:32:05 10° S
SOZ 3.9 23:26:19 10° WSW 23:28:51 59° NW 23:28:51 59° NW
Cosmos 1606 Rocket 3.4 23:24:38 10° S 23:29:00 74° E 23:32:53 13° NNE
USA 215 4.2 23:26:29 22° NE 23:29:20 31° NNE 23:34:56 10° NW
Cosmos 1461 2.6 23:26:43 10° SSW 23:30:35 89° NW 23:32:05 36° NNE
Gbstr 26 Del rocket 2.9 23:26:54 10° SW 23:30:50 53° SE 23:31:38 43° E
Meteor 1-20 Rocket 4.3 23:27:24 10° NNW 23:32:52 76° W 23:38:18 10° S
Cosmos 1076 Rocket 3.7 23:32:16 10° N 23:36:25 46° ENE 23:40:34 10° SSE
Resurs 1-3 3.6 23:32:29 10° SSE 23:36:40 53° ENE 23:40:52 10° N
Okean 1-7 Rocket 3.8 23:36:36 10° NNW 23:40:59 70° W 23:45:18 10° S
Cosmos 783 Rocket 4.4 23:36:03 10° NNW 23:41:24 86° ENE 23:46:41 10° SSE
Lacrosse 5 rocket 3.3 23:40:06 10° NW 23:42:11 14° NNW 23:42:52 14° N
PSLV R/B 3.9 23:48:43 10° SSE 23:53:51 44° N 23:56:44 10° N
SKYMED 2 3.9 23:51:59 18° N 23:55:06 64° WNW 23:59:23 10° SSW
COSMO-SKYMED 1 2.3 23:54:32 59° NNE 23:55:17 86° ESE 23:59:23 10° SSW
